Regional Weather Roundup
Issued by NWS Green Bay, WI

Home | Current Version | Previous Version | Graphics & Text | Print | Product List | Glossary Off
Versions: 1 2 3 4 5 6 7 8 9 10 11 12 13 14 15 16 17 18 19 20 21 22 23 24 25 26 27 28 29 30 31 32 33 34 35 36 37 38 39 40 41 42 43 44 45 46 47 48 49 50

089
ASUS43 KGRB 240411
RWRGRB

NORTH-CENTRAL AND NORTHEAST WISCONSIN REGIONAL WEATHER ROUNDUP
NATIONAL WEATHER SERVICE GREEN BAY WI
1000 PM CST FRI FEB 23 2018

WIZ005-009-010>012-018-019-240500-
NORTH CENTRAL WISCONSIN

CITY           SKY/WX    TMP DP  RH WIND       PRES   REMARKS
IRONWOOD       CLOUDY    28  22  78 W9        30.19S
MANITOWISH WTR CLOUDY    26  24  93 W5        30.18S
ARBOR VITAE    CLOUDY    29  25  85 W5        30.19R
EAGLE RIVER    CLOUDY    27  22  80 W7        30.18R
LAND O LAKES   CLOUDY    28  23  82 W6        30.19R
RHINELANDER    CLOUDY    27  22  81 W8        30.20R
PHILLIPS       FAIR      13  13  98 CALM      30.21R FOG
ANTIGO         CLOUDY    26  21  80 NW9       30.22R
TOMAHAWK       FAIR      19  18  93 CALM      30.22R
MERRILL        FAIR      22  21  93 W3        30.24R
$$

WIZ013-073-240500-
NORTHEAST WISCONSIN

CITY           SKY/WX    TMP DP  RH WIND       PRES   REMARKS
IRON MOUNTAIN  CLOUDY    30  22  72 W12       30.18R
MARINETTE      CLOUDY    33  22  63 NW3       30.25R
OCONTO         CLOUDY    32  23  67 NW6       30.24R
$$

WIZ017-030-035>037-045-240500-
CENTRAL WISCONSIN

CITY           SKY/WX    TMP DP  RH WIND       PRES   REMARKS
MEDFORD        FAIR      20  18  93 SW5       30.23R FOG
WAUSAU         FAIR      25  20  81 W8        30.23R
MOSINEE        CLOUDY    27  21  80 W7        30.26R
MARSHFIELD     FAIR      22  19  89 W5        30.24R FOG
WISC RAPIDS    CLOUDY    28  20  71 NW9       30.28R
STEVENS POINT  CLOUDY    27  20  75 NW7       30.27R
WAUPACA        CLOUDY    32  22  66 NW13      30.27R
SHAWANO        CLOUDY    33  23  67 W6        30.25R
CLINTONVILLE   CLOUDY    31  22  68 NW10      30.26R
WAUTOMA        CLOUDY    29  22  75 NW12      30.28R
$$

WIZ038-039-048-051-240500-
FOX VALLEY

CITY           SKY/WX    TMP DP  RH WIND       PRES   REMARKS
NWS GREEN BAY  CLOUDY    32  22  66 NW14      30.26R
APPLETON       CLOUDY    30  19  64 NW13      30.24R
OSHKOSH        CLOUDY    31  23  72 NW8       30.26R
FOND DU LAC    CLOUDY    32  23  69 NW14      30.25S
$$

WIZ022-050-052-240500-
EAST CENTRAL WISCONSIN

CITY           SKY/WX    TMP DP  RH WIND       PRES   REMARKS
EPHRAIM        CLOUDY    32  23  69 NW3       30.21R
WASHINGTON ISL CLOUDY    32  26  77 W7        30.21R
STURGEON BAY   CLOUDY    33  23  66 NW7       30.24R
MANITOWOC      CLOUDY    32  24  72 NW9       30.26R
SHEBOYGAN      CLOUDY    32  26  78 NW9       30.25R
$$

LMZ563-521-522-541>543-240500-
LAKESHORE

STATION/POSITION TIME  TEMP    WIND        PRES    VSBY  WAVE
                       AIR SEA DIR/SP/G                  HT/PER
                 (UTC) (F)     (DEG/KT/KT) (MB)    (MI)  (FT/S)
SHEBOYGAN LKSHOR 0400   33     320/ 10/ 12 1024.9S
KEWAUNEE LKSHORE 0348   33     310/  4/  6 1023.4R
NORTHPORT PIER   0340   34                 1023.0R
SISTER BAY LKSHO 0320   33     290/ 10/ 12   N/A
MENOMINEE LKSHOR 0348   33     310/ 11/ 13 1023.4R
$$




USA.gov is the U.S. government's official web portal to all federal, state and local government web resources and services.